User: anonymous   Login
Location: Cheyres
(46.8153°N, 6.7877°E)
Time: 17:28:34
(UTC+00:00)
Language:

NOAA 16 DEB - Orbit

View from above orbital plane
View from above orbital plane
View from above satellite
View from above satellite

Ground track
Ground track

The orbit data is extracted from the following two-line orbital elements,

1 41419U 00055KY  21335.15455918  .00001852  00000-0  10038-2 0  9991
2 41419  98.8826  51.5964 0022710 235.3783 124.5248 14.13567237297277
Epoch (UTC): 01 December 2021 03:42:33
Eccentricity: 0.0022710
inclination: 98.8826°
perigee height: 831 km
apogee height: 863 km
right ascension of ascending node: 51.5964°
argument of perigee: 235.3783°
revolutions per day: 14.13567237
mean anomaly at epoch: 124.5248°
orbit number at epoch: 29727

The dashed part of the orbit path shows where the satellite is in the earth's shadow,  

DLR